Regional Weather Roundup
Issued by NWS Burlington, VT

Home | Current Version | Previous Version | Text Only | Print | Product List | Glossary On
Versions: 1 2 3 4 5 6 7 8 9 10 11 12 13 14 15 16 17 18 19 20 21 22 23 24 25 26 27 28 29 30 31 32 33 34 35 36 37 38 39 40 41 42 43 44 45 46 47 48 49 50
000
ASUS41 KBTV 271930
RWRBTV
VERMONT REGIONAL WEATHER ROUNDUP
NATIONAL WEATHER SERVICE BURLINGTON VT
300 PM EDT WED AUG 27 2014

NOTE: "FAIR" INDICATES FEW OR NO CLOUDS BELOW 12,000 FEET WITH NO
SIGNIFICANT WEATHER AND/OR OBSTRUCTIONS TO VISIBILITY.

* THESE REPORTS ARE NOT UNDER NWS QUALITY CONTROL AND/OR DO NOT
  REPORT WEATHER SUCH AS PRECIPITATION AND FOG.

VTZ001>019-272000-
_____VERMONT_____


CITY           SKY/WX    TMP DP  RH WIND       PRES   REMARKS
BURLINGTON     PTCLDY    83  62  49 NE12      29.88F
MONTPELIER     MOCLDY    80  64  58 NW8       29.94F
MORRISVILLE    CLEAR     79  60  52 N9        29.91F
ST. JOHNSBURY*   N/A     83  60  45 MISG      29.87F
MIDDLEBURY*    CLOUDY    83  69  62 S5        29.87F
RUTLAND*       CLOUDY    81  66  61 W7        29.89F
SPRINGFIELD    PTCLDY    85  64  49 W10       29.89F
HIGHGATE*      FAIR      78  60  54 NW5       29.90S
NEWPORT*       FAIR      76  60  57 W6        29.91F
BENNINGTON     CLOUDY    79  68  69 W6        29.94F
SUTTON*          N/A     77 N/A N/A MISG        N/A
GALLUP MILLS*    N/A      0 N/A N/A MISG        N/A
UNION VILLAGE*   N/A     86 N/A N/A MISG        N/A
MT. MANSFIELD*   N/A     64 N/A N/A NW7         N/A

_____LAKE CHAMPLAIN_____


CITY           SKY/WX    TMP DP  RH WIND       PRES   REMARKS
BURTON ISLAND*   N/A     81  64  57 N1          N/A
COLCHESTER RF*   N/A     77  63  61 E15         N/A
DIAMOND ISL*     N/A     77  64  65 N17         N/A

$$

NYZ007-026>031-035-052-083-272000-
_____NORTHERN NEW YORK_____


CITY           SKY/WX    TMP DP  RH WIND       PRES   REMARKS
PLATTSBURGH    CLEAR     81  64  56 E14       29.87F
SARANAC LAKE   PTCLDY    75  57  53 W10       29.95S
MASSENA        PTCLDY    77  60  55 W9        29.93F
OGDENSBURG*    PTCLDY    79  61  53 NW8       29.94S
POTSDAM*       MOCLDY    79  64  61 NW12      29.93F
PARISHVILLE*     N/A     73 N/A N/A W9          N/A
WATERTOWN      CLEAR     75  62  64 SW14      29.97S
FT DRUM        CLEAR     76  54  46 W13       29.96S
ALBANY         CLOUDY    81  70  69 W7        29.92F
GLENS FALLS    PTCLDY    84  71  65 S10       29.87F

$$
NHZ002-005-011-272000-
_____NEW HAMPSHIRE_____


CITY           SKY/WX    TMP DP  RH WIND       PRES   REMARKS
LEBANON        CLEAR     86  61  42 SW9       29.87F
KEENE          CLOUDY    82  64  54 SW6       29.90F
MT WASHINGTON  MOCLDY    54  50  87 W30G38      N/A
PLYMOUTH       FAIR      85  69  58 W7        29.84F
WHITEFIELD     PTCLDY    81  62  52 W7        29.89F

$$

_____REGIONAL QUEBEC LOCATIONS_____


CITY           SKY/WX    TMP DP  RH WIND       PRES   REMARKS
MONTREAL       MOCLDY    75  57  53 W12       29.90F
QUEBEC CITY    MOCLDY    73  55  53 W10       29.86F
SHERBROOKE     PTCLDY    77  61  57 NW12G18   29.88F

_____REGIONAL ONTARIO LOCATIONS_____


CITY           SKY/WX    TMP DP  RH WIND       PRES   REMARKS
OTTAWA         MOCLDY    73  57  56 W13       29.95S

______KEY______
VSB  - VISIBILITY IN MILES
WCI  - WIND CHILL INDEX
HX   - HEAT INDEX
$$
NNNN


USA.gov is the U.S. government's official web portal to all federal, state and local government web resources and services.